Weather History for Smyrna, TN

Change the Weather History Date:

Monday, January 7, 2013

  Actual Average Record
Temperature  
Mean Temperature 35 °F -  
Max Temperature 48 °F 45 °F 72 °F (2008)
Min Temperature 22 °F 32 °F 1 °F (2014)
Degree Days  
Heating Degree Days 30    
Moisture  
Dew Point 25 °F    
Average Humidity 78    
Maximum Humidity 100    
Minimum Humidity 46    
Precipitation  
Precipitation 0.00 in - - ()
Sea Level Pressure  
Sea Level Pressure 30.37 in    
Wind  
Wind Speed 0 mph (South)    
Max Wind Speed 7 mph    
Max Gust Speed -    
Visibility 9 miles    
Events      
Averages and records for this station are not official NWS values.
T = Trace of Precipitation, MM = Missing Value Source: NWS Daily Summary

Daily Weather History Graph

Daily Weather History Graph

Search for Another Location

Airport:

Trip Planner

Search our weather history database for the weather conditions in past years. The results will help you decide how hot, cold, wet, or windy it might be!

Date:

Astronomy

Jan. 07, 2013 Rise Set
Actual Time 6:57 AM CST 4:48 PM CST
Civil Twilight 6:28 AM CST 5:16 PM CST
Nautical Twilight 5:57 AM CST 5:48 PM CST
Astronomical Twilight 5:26 AM CST 6:19 PM CST
Moon 2:22 AM CST (1/7) 12:57 PM CST (1/7)
Length of Visible Light 10h 47m
Length of Day
9h 50m
Waning Crescent, 22% of the Moon is Illuminated
Jan 7
Waning Crescent
Jan 11
New
Jan 18
First Quarter
Jan 26
Full
Feb 3
Last Quarter

Hourly Weather History & Observations

Time (CST) Temp. Dew Point Humidity Pressure Visibility Wind Dir Wind Speed Gust Speed Precip Events Conditions
12:56 AM 25.2 °F 21.0 °F 84% 30.42 in 10.0 mi Calm Calm - N/A   Clear
1:56 AM 25.2 °F 22.1 °F 88% 30.42 in 10.0 mi Calm Calm - N/A   Clear
2:56 AM 24.1 °F 20.1 °F 85% 30.43 in 10.0 mi Calm Calm - N/A   Clear
3:56 AM 22.1 °F 19.0 °F 88% 30.41 in 10.0 mi Calm Calm - N/A   Clear
4:56 AM 24.1 °F 22.1 °F 92% 30.43 in 9.0 mi Calm Calm - N/A   Clear
5:56 AM 24.1 °F 22.1 °F 92% 30.43 in 8.0 mi Calm Calm - N/A   Clear
6:56 AM 23.0 °F 21.0 °F 92% 30.45 in 8.0 mi Calm Calm - N/A   Clear
7:56 AM 24.1 °F 22.1 °F 92% 30.45 in 7.0 mi Calm Calm - N/A   Clear
9:56 AM 34.9 °F 26.1 °F 70% 30.45 in 10.0 mi Calm Calm - N/A   Clear
10:56 AM 37.9 °F 27.1 °F 65% 30.44 in 10.0 mi Calm Calm - N/A   Clear
11:56 AM 43.0 °F 28.0 °F 56% 30.39 in 10.0 mi Calm Calm - N/A   Clear
12:56 PM 45.9 °F 28.0 °F 50% 30.36 in 10.0 mi Calm Calm - N/A   Clear
1:56 PM 46.9 °F 29.1 °F 50% 30.34 in 10.0 mi North 6.9 mph - N/A   Clear
2:56 PM 48.9 °F 29.1 °F 46% 30.34 in 10.0 mi Calm Calm - N/A   Clear
3:56 PM 46.9 °F 30.0 °F 52% 30.34 in 10.0 mi Calm Calm - N/A   Clear
4:56 PM 41.9 °F 29.1 °F 61% 30.32 in 10.0 mi Calm Calm - N/A   Clear
5:56 PM 34.0 °F 28.0 °F 79% 30.32 in 10.0 mi Calm Calm - N/A   Clear
6:56 PM 30.0 °F 26.1 °F 85% 30.32 in 10.0 mi Calm Calm - N/A   Clear
7:56 PM 29.1 °F 25.2 °F 85% 30.32 in 10.0 mi Calm Calm - N/A   Clear
8:56 PM 27.1 °F 24.1 °F 88% 30.31 in 10.0 mi Calm Calm - N/A   Clear
9:56 PM 27.1 °F 27.1 °F 100% 30.30 in 6.0 mi Calm Calm - N/A   Clear
10:56 PM 26.1 °F 25.2 °F 96% 30.30 in 6.0 mi Calm Calm - N/A   Clear
11:56 PM 26.1 °F 25.2 °F 96% 30.29 in 7.0 mi Calm Calm - N/A   Clear